FW0344 Weather Reports


time (UTC)temp
C
wind
direction
speed
KPH
gust
KPH
rain 1hr
cm
rain 24hr
cm
rain mn
cm
humidity
%
barometer
mb
20260507223606 11 97 8.0 16.1 0.00 0.00 0.00 80 1014.4
20260507222726 11 91 8.0 16.1 0.00 0.00 0.00 80 1014.5
20260507221806 12 96 8.0 16.1 0.00 0.00 0.00 80 1014.4
20260507220905 12 94 8.0 16.1 0.00 0.00 0.00 80 1014.5
20260507220006 12 92 6.4 14.5 0.00 0.00 0.00 80 1014.5
20260507215405 12 98 8.0 14.5 0.00 0.00 0.00 80 1014.6
20260507214505 12 107 8.0 16.1 0.00 0.00 0.00 80 1014.7
20260507213605 12 112 6.4 16.1 0.00 0.00 0.00 80 1014.7
20260507212705 12 114 8.0 17.7 0.00 0.00 0.00 79 1014.7
20260507211827 12 112 6.4 14.5 0.00 0.00 0.00 79 1014.6
20260507210005 12 100 6.4 14.5 0.00 0.00 0.00 79 1014.4
20260507205405 12 106 8.0 14.5 0.00 0.00 0.00 78 1014.5
20260507204506 12 96 8.0 17.7 0.00 0.00 0.00 78 1014.5
20260507203606 12 92 8.0 14.5 0.00 0.00 0.00 78 1014.5
20260507202727 12 92 4.8 11.3 0.00 0.00 0.00 77 1014.3
20260507201806 12 96 4.8 11.3 0.00 0.00 0.00 77 1014.3
20260507200905 12 95 4.8 12.9 0.00 0.00 0.00 76 1014.1
20260507200006 12 97 4.8 12.9 0.00 0.00 0.00 75 1014.0
20260507195406 12 96 3.2 6.4 0.00 0.00 0.00 75 1014.0
20260507194505 12 83 4.8 12.9 0.00 0.00 0.00 74 1013.9
20260507193605 12 96 6.4 12.9 0.00 0.00 0.00 74 1013.9
20260507192706 13 75 4.8 11.3 0.00 0.00 0.00 72 1013.8
20260507191827 13 79 8.0 14.5 0.00 0.00 0.00 71 1013.7
20260507190905 13 82 8.0 14.5 0.00 0.00 0.00 69 1013.6
20260507190005 13 87 6.4 12.9 0.00 0.00 0.00 67 1013.6
20260507185405 13 89 6.4 11.3 0.00 0.00 0.00 66 1013.6
20260507184505 13 99 4.8 9.7 0.00 0.00 0.00 65 1013.7
20260507183606 13 119 4.8 12.9 0.00 0.00 0.00 63 1013.7
20260507182704 13 115 4.8 11.3 0.00 0.00 0.00 60 1013.7
20260507181826 13 112 8.0 17.7 0.00 0.00 0.00 58 1013.6
20260507180925 14 112 8.0 16.1 0.00 0.00 0.00 56 1013.5
20260507180005 14 120 6.4 16.1 0.00 0.00 0.00 56 1013.6
20260507175405 14 110 8.0 16.1 0.00 0.00 0.00 56 1013.5
20260507174526 15 110 8.0 14.5 0.00 0.00 0.00 58 1013.5
20260507173626 15 114 8.0 14.5 0.00 0.00 0.00 58 1013.5
20260507172705 15 123 8.0 17.7 0.00 0.00 0.00 57 1013.5
20260507171805 15 128 9.7 20.9 0.00 0.00 0.00 56 1013.5
20260507170926 15 141 9.7 17.7 0.00 0.00 0.00 55 1013.5
20260507170005 15 150 9.7 16.1 0.00 0.00 0.00 54 1013.5
20260507165425 15 148 9.7 19.3 0.00 0.00 0.00 52 1013.5
20260507164505 16 106 9.7 16.1 0.00 0.00 0.00 49 1013.6
20260507163605 16 102 8.0 16.1 0.00 0.00 0.00 46 1013.5
20260507162705 15 113 9.7 16.1 0.00 0.00 0.00 51 1013.6
20260507161805 16 144 8.0 14.5 0.00 0.00 0.00 53 1013.6
20260507160905 16 138 9.7 19.3 0.00 0.00 0.00 50 1013.7
20260507160004 16 130 9.7 20.9 0.00 0.00 0.00 52 1013.7
20260507155404 16 144 9.7 20.9 0.00 0.00 0.00 50 1013.6
20260507154505 16 149 11.3 19.3 0.00 0.00 0.00 50 1013.8
20260507153605 17 134 9.7 19.3 0.00 0.00 0.00 50 1013.8
20260507152705 16 134 11.3 24.1 0.00 0.00 0.00 51 1013.9
20260507151805 16 139 11.3 19.3 0.00 0.00 0.00 53 1013.9
20260507150904 16 141 11.3 25.7 0.00 0.00 0.00 54 1014.1
20260507150006 17 153 9.7 20.9 0.00 0.00 0.00 57 1014.1
20260507145405 16 146 11.3 20.9 0.00 0.00 0.00 54 1014.1
20260507144526 17 152 9.7 20.9 0.00 0.00 0.00 56 1014.2
20260507143605 16 137 12.9 20.9 0.00 0.00 0.00 55 1014.3
20260507142705 17 132 12.9 24.1 0.00 0.00 0.00 56 1014.2
20260507141826 17 140 12.9 22.5 0.00 0.00 0.00 56 1014.4
20260507140926 17 162 11.3 19.3 0.00 0.00 0.00 54 1014.4
20260507140006 16 173 12.9 22.5 0.00 0.00 0.00 50 1014.5
20260507135405 17 171 11.3 24.1 0.00 0.00 0.00 51 1014.5
20260507134505 17 153 9.7 20.9 0.00 0.00 0.00 50 1014.5
20260507133604 17 138 11.3 22.5 0.00 0.00 0.00 52 1014.4
20260507132705 17 129 9.7 19.3 0.00 0.00 0.00 50 1014.5
20260507131804 17 138 11.3 27.4 0.00 0.00 0.00 50 1014.5
20260507130905 17 142 9.7 19.3 0.00 0.00 0.00 50 1014.6
20260507130004 17 141 11.3 22.5 0.00 0.00 0.00 52 1014.6
20260507125405 16 143 12.9 25.7 0.00 0.00 0.00 51 1014.6
20260507124505 17 152 14.5 22.5 0.00 0.00 0.00 52 1014.7
20260507123626 17 135 11.3 20.9 0.00 0.00 0.00 54 1014.7
20260507122705 16 144 12.9 24.1 0.00 0.00 0.00 56 1014.7
20260507121805 16 159 11.3 24.1 0.00 0.00 0.00 54 1014.8
20260507120904 16 160 12.9 22.5 0.00 0.00 0.00 55 1014.7
20260507120005 16 151 12.9 27.4 0.00 0.00 0.00 55 1014.8
20260507115405 16 156 11.3 25.7 0.00 0.00 0.00 56 1014.8
20260507114505 17 151 12.9 20.9 0.00 0.00 0.00 57 1014.9
20260507113605 16 156 11.3 25.7 0.00 0.00 0.00 60 1014.9
20260507112705 16 146 11.3 29.0 0.00 0.00 0.00 56 1014.9
20260507111826 16 148 12.9 29.0 0.00 0.00 0.00 58 1015.0
20260507110925 16 152 11.3 22.5 0.00 0.00 0.00 59 1014.8
20260507110026 16 155 11.3 20.9 0.00 0.00 0.00 58 1014.9
20260507105425 16 158 12.9 25.7 0.00 0.00 0.00 62 1015.0
20260507104504 15 169 12.9 24.1 0.00 0.00 0.00 64 1015.0
20260507103603 15 157 11.3 25.7 0.00 0.00 0.00 67 1015.1
20260507102704 15 145 11.3 22.5 0.00 0.00 0.00 68 1015.0
20260507101825 15 146 11.3 22.5 0.00 0.00 0.00 68 1015.0
20260507100904 15 147 12.9 22.5 0.00 0.00 0.00 68 1015.0
20260507100005 15 148 9.7 22.5 0.00 0.00 0.00 70 1015.0
20260507095403 15 137 9.7 16.1 0.00 0.00 0.00 70 1015.0
20260507094504 15 156 9.7 19.3 0.00 0.00 0.00 71 1015.0
20260507093603 14 160 8.0 17.7 0.00 0.00 0.00 72 1015.0
20260507092703 14 142 8.0 17.7 0.00 0.00 0.00 71 1014.9
20260507091804 13 154 9.7 16.1 0.00 0.00 0.00 72 1015.0
20260507090904 13 137 9.7 16.1 0.00 0.00 0.00 72 1014.9
20260507090004 14 135 6.4 17.7 0.00 0.00 0.00 74 1014.9
20260507085405 14 132 8.0 17.7 0.00 0.00 0.00 75 1014.9
20260507084504 13 147 9.7 19.3 0.00 0.00 0.00 76 1014.9
20260507083604 13 144 8.0 17.7 0.00 0.00 0.00 78 1014.9
20260507082704 13 133 6.4 16.1 0.00 0.00 0.00 80 1014.8
20260507081804 12 123 8.0 17.7 0.00 0.00 0.00 81 1014.9
20260507080925 12 121 8.0 16.1 0.00 0.00 0.00 82 1014.8
20260507080003 12 92 6.4 12.9 0.00 0.00 0.00 82 1014.9
20260507075425 12 85 6.4 12.9 0.00 0.00 0.00 82 1014.9
20260507074504 12 86 6.4 12.9 0.00 0.00 0.00 82 1014.9
20260507073604 12 56 1.6 6.4 0.00 0.00 0.00 82 1014.9
20260507072704 11 55 1.6 6.4 0.00 0.00 0.00 82 1014.8
20260507071803 10 45 3.2 6.4 0.00 0.00 0.00 83 1014.8
20260507070903 10 44 1.6 4.8 0.00 0.00 0.00 83 1014.8
20260507070025 9 44 0.0 3.2 0.00 0.00 0.00 83 1014.7
20260507065403 9 47 1.6 3.2 0.00 0.00 0.00 83 1014.7
20260507064504 9 49 1.6 4.8 0.00 0.00 0.00 83 1014.8
20260507063624 8 53 1.6 3.2 0.00 0.00 0.00 83 1014.8
20260507062703 8 53 0.0 1.6 0.00 0.00 0.00 83 1014.8
20260507061803 8 0 0.0 0.0 0.00 0.03 0.00 83 1014.7
20260507060903 8 54 0.0 4.8 0.00 0.03 0.00 83 1014.7
20260507060003 8 54 1.6 4.8 0.00 0.03 0.00 82 1014.5
20260507055403 8 54 3.2 4.8 0.00 0.03 0.00 82 1014.4
20260507054504 8 54 1.6 3.2 0.00 0.03 0.00 82 1014.3
20260507053604 8 0 0.0 0.0 0.00 0.03 0.00 82 1014.3
20260507052725 7 54 0.0 4.8 0.00 0.03 0.00 82 1014.1
20260507051806 7 55 3.2 6.4 0.00 0.03 0.00 82 1014.1
20260507050906 7 53 1.6 4.8 0.00 0.03 0.00 82 1014.3
20260507050006 7 40 3.2 8.0 0.00 0.03 0.00 81 1014.2
20260507045406 7 37 1.6 6.4 0.00 0.03 0.00 81 1014.1
20260507044507 7 38 1.6 4.8 0.00 0.03 0.00 81 1014.1
20260507043606 7 52 3.2 6.4 0.00 0.03 0.00 81 1014.1
20260507042706 7 45 4.8 9.7 0.00 0.03 0.00 81 1014.0
20260507041827 8 50 3.2 8.0 0.00 0.03 0.00 80 1014.0
20260507040905 8 39 3.2 9.7 0.00 0.03 0.00 80 1014.1
20260507040006 8 42 4.8 9.7 0.00 0.03 0.00 80 1014.0
20260507035406 8 36 3.2 8.0 0.00 0.03 0.00 80 1014.1
20260507034506 8 44 3.2 6.4 0.00 0.03 0.00 80 1014.0
20260507033607 8 46 3.2 8.0 0.00 0.03 0.00 79 1013.9
20260507032705 8 32 3.2 6.4 0.00 0.03 0.00 79 1013.9
20260507031807 8 52 3.2 8.0 0.00 0.03 0.00 79 1013.9
20260507030905 8 51 4.8 9.7 0.00 0.03 0.00 79 1013.8
20260507030028 8 38 3.2 6.4 0.00 0.03 0.00 79 1013.7
20260507025405 8 31 4.8 8.0 0.00 0.03 0.00 79 1013.6
20260507024506 8 31 4.8 8.0 0.00 0.03 0.00 79 1013.6
20260507023605 8 46 4.8 9.7 0.00 0.03 0.00 79 1013.6
20260507022706 8 37 4.8 8.0 0.00 0.03 0.00 79 1013.6
20260507021805 8 35 4.8 8.0 0.00 0.03 0.00 79 1013.6
20260507020927 8 36 3.2 6.4 0.00 0.03 0.00 80 1013.7
20260507020006 8 34 3.2 8.0 0.00 0.03 0.00 80 1013.7
20260507015406 8 30 3.2 8.0 0.00 0.03 0.00 80 1013.8
20260507014505 8 34 3.2 6.4 0.00 0.03 0.00 80 1013.7
20260507013605 8 33 3.2 6.4 0.00 0.03 0.00 80 1013.7
20260507012727 8 32 1.6 6.4 0.00 0.03 0.00 81 1013.6
20260507011826 8 32 3.2 4.8 0.00 0.03 0.00 81 1013.8
20260507010005 9 25 1.6 6.4 0.00 0.03 0.00 81 1013.7
20260507005427 9 25 1.6 4.8 0.00 0.03 0.00 81 1013.7
20260507004506 9 29 1.6 6.4 0.00 0.03 0.00 81 1013.7
20260507003606 9 0 0.0 0.0 0.00 0.03 0.00 81 1013.7
20260507002706 10 278 0.0 3.2 0.00 0.03 0.00 80 1013.8
20260507001806 10 278 0.0 3.2 0.00 0.03 0.00 80 1013.9
20260507000906 10 0 0.0 0.0 0.00 0.03 0.00 80 1013.8
20260507000006 10 0 0.0 0.0 0.00 0.03 0.00 79 1013.8
20260506235405 10 0 0.0 0.0 0.00 0.03 0.00 79 1013.8
20260506234506 10 0 0.0 0.0 0.00 0.03 0.00 79 1013.7
20260506233605 10 0 0.0 0.0 0.00 0.03 0.00 79 1013.7
20260506232707 10 0 0.0 0.0 0.00 0.03 0.00 79 1013.7
20260506231826 10 0 0.0 0.0 0.00 0.03 0.00 78 1013.7
20260506230928 10 0 0.0 0.0 0.00 0.03 0.00 78 1013.7
20260506230005 10 0 0.0 0.0 0.00 0.03 0.00 78 1013.8
20260506225405 10 0 0.0 0.0 0.00 0.03 0.03 78 1013.8
20260506224505 10 0 0.0 0.0 0.00 0.03 0.03 78 1013.8